Effective Sunday, March 17, 2024, the National Weather Service National Data Buoy Center will discontinue its Dial-A-Buoy Interactive Voice Response system. For more information, see Service Change Notice 24-06 (PDF).

Station VCAT2 - 8773259 - Port Lavaca, TX Image indicating link to RSS feed of recent meteorological observations for station VCAT2


Conditions at VCAT2 as of
(3:54 am CST)
0954 GMT on 02/26/2024:
     

Click on the graph icon in the table below to see a time series plot of the last five days of that observation.

5-day plot - Wind Direction Wind Direction (WDIR): S ( 190 deg true )
5-day plot - Wind Speed Wind Speed (WSPD): 12.0 kts
5-day plot - Wind Gust Wind Gust (GST): 14.0 kts
5-day plot - Atmospheric Pressure Atmospheric Pressure (PRES):29.95 in
5-day plot - Air Temperature Air Temperature (ATMP): 65.7 °F
5-day plot - Water Temperature Water Temperature (WTMP): 67.8 °F
5-day plot -  Wind Speed, Wind Gust and Atmospheric Pressure Combined plot of Wind Speed, Gust, and Air Pressure
Previous observations
TIME
(CST)
5-day plot - Wind Direction
WDIR
 
5-day plot - Wind Speed
WSPD
kts
5-day plot - Wind Gust
GST
kts
5-day plot - Wave Height
WVHT
ft
5-day plot - Dominant Wave Period
DPD
sec
5-day plot - Average Wave Period
APD
sec
5-day plot - Mean Wave Direction
MWD
 
5-day plot - Atmospheric Pressure
PRES
in
5-day plot - Pressure Tendency
PTDY
in
5-day plot - Air Temperature
ATMP
°F
5-day plot - Water Temperature
WTMP
°F
5-day plot - Dew Point
DEWP
°F
5-day plot - Salinity
SAL
psu
5-day plot - Visibility
VIS
nmi
5-day plot - Tide (above MLLW)
TIDE
ft
2024-02-26 03:48 am S 12.0 13.0----29.95- 65.7 68.0----
2024-02-26 03:42 am S 11.1 13.0----29.95- 65.7 68.0----
2024-02-26 03:36 am S 12.0 13.0----29.95- 65.7 68.0----
2024-02-26 03:30 am S 12.0 13.0----29.96- 65.8 68.2----
2024-02-26 03:24 am S 12.0 14.0----29.96- 65.8 68.2----
2024-02-26 03:18 am S 12.0 14.0----29.96- 65.8 68.2----
2024-02-26 03:12 am S 12.0 15.0----29.96- 65.8 68.2----
2024-02-26 03:06 am S 12.0 14.0----29.96- 66.0 68.2----
2024-02-26 03:00 am S 12.0 14.0----29.96-0.03 66.0 68.2----
2024-02-26 02:54 am S 12.0 13.0----29.97- 66.2 68.2----
2024-02-26 02:48 am S 12.0 14.0----29.97- 66.2 68.4----
2024-02-26 02:42 am S 11.1 13.0----29.97- 66.2 68.4----
2024-02-26 02:36 am S 11.1 12.0----29.97- 66.2 68.4----
2024-02-26 02:30 am S 11.1 13.0----29.97- 66.4 68.4----
2024-02-26 02:24 am S 9.9 12.0----29.98- 66.4 68.4----
2024-02-26 02:18 am S 11.1 12.0----29.98- 66.4 68.4----
2024-02-26 02:12 am S 11.1 12.0----29.98- 66.6 68.4----
2024-02-26 02:06 am S 9.9 12.0----29.98- 66.6 68.4----
2024-02-26 02:00 am S 11.1 13.0----29.98-0.02 66.7 68.4----
2024-02-26 01:54 am S 11.1 13.0----29.98- 66.7 68.4----
2024-02-26 01:48 am S 11.1 13.0----29.99- 66.9 68.4----
2024-02-26 01:42 am S 11.1 15.0----29.99- 66.9 68.4----
2024-02-26 01:36 am S 12.0 15.0----29.99- 66.9 68.4----
2024-02-26 01:30 amSSW 12.0 14.0----29.99- 67.1 68.5----
2024-02-26 01:24 am S 12.0 15.0----29.99- 67.1 68.5----
2024-02-26 01:18 am S 13.0 15.0----29.99- 67.1 68.5----
2024-02-26 01:12 amSSW 12.0 15.0----29.99- 67.1 68.5----
2024-02-26 01:06 amSSW 12.0 15.0----29.99- 67.1 68.5----
2024-02-26 01:00 amSSW 13.0 14.0----29.99-0.01 67.1 68.5----
2024-02-26 12:54 amSSW 13.0 15.0----29.99- 67.1 68.7----
2024-02-26 12:48 amSSW 13.0 15.0----29.98- 67.1 68.7----
2024-02-26 12:42 am S 12.0 15.9----29.98- 67.1 68.7----
2024-02-26 12:36 am S 12.0 15.9----29.99- 67.1 68.7----
2024-02-26 12:30 amSSW 13.0 15.0----29.99- 67.1 68.7----
2024-02-26 12:24 am S 12.0 15.0----29.99- 67.3 68.7----
2024-02-26 12:18 amSSW 13.0 15.9----29.99- 67.3 68.7----
2024-02-26 12:12 am S 13.0 17.1----29.99- 67.3 68.9----
2024-02-26 12:06 am S 12.0 15.0----29.99- 67.3 68.9----
2024-02-26 12:00 am S 14.0 17.1----29.99+0.00 67.5 68.9----
2024-02-25 11:54 pmSSW 14.0 15.9----29.99- 67.3 68.9----
2024-02-25 11:48 pm S 13.0 17.1----29.99- 67.3 68.9----
2024-02-25 11:42 pm S 14.0 15.9----29.99- 67.3 68.9----
2024-02-25 11:36 pm S 13.0 14.0----30.00- 67.3 69.1----
2024-02-25 11:30 pmSSW 12.0 15.0----30.00- 67.3 69.1----
2024-02-25 11:24 pm S 12.0 15.0----30.00- 67.3 69.1----
2024-02-25 11:18 pmSSW 12.0 15.9----30.00- 67.3 69.1----
2024-02-25 11:12 pmSSW 12.0 14.0----30.00- 67.3 69.1----
2024-02-25 11:06 pm S 12.0 15.0----30.00- 67.5 69.3----
2024-02-25 11:00 pmSSW 12.0 15.0----30.00+0.03 67.5 69.3----
2024-02-25 10:54 pmSSW 12.0 14.0----30.00- 67.5 69.3----
2024-02-25 10:48 pm S 12.0 15.9----30.00- 67.5 69.3----
2024-02-25 10:42 pm S 13.0 15.0----30.00- 67.5 69.3----
2024-02-25 10:36 pm S 13.0 15.0----30.00- 67.6 69.4----
2024-02-25 10:30 pm S 13.0 15.9----30.00- 67.6 69.4----
2024-02-25 10:24 pm S 13.0 15.0----30.00- 67.6 69.4----
2024-02-25 10:18 pm S 13.0 15.0----30.00- 67.6 69.4----
2024-02-25 10:12 pm S 14.0 15.0----30.00- 67.6 69.4----
2024-02-25 10:06 pm S 13.0 15.9----30.00- 67.6 69.6----
2024-02-25 10:00 pm S 13.0 15.0----30.00+0.04 67.6 69.6----
2024-02-25 09:54 pm S 15.0 17.1----30.00- 67.8 69.6----
2024-02-25 09:48 pm S 13.0 17.1----30.00- 67.8 69.6----
2024-02-25 09:42 pm S 12.0 15.9----29.99- 68.0 69.6----
2024-02-25 09:36 pm S 13.0 15.9----29.99- 67.8 69.8----
2024-02-25 09:30 pm S 13.0 15.9----29.99- 67.8 69.8----
2024-02-25 09:24 pm S 13.0 15.9----29.99- 67.8 69.8----
2024-02-25 09:18 pm S 13.0 15.0----29.99- 67.8 69.8----
2024-02-25 09:12 pm S 12.0 15.0----29.99- 67.8 70.0----
2024-02-25 09:06 pm S 12.0 15.0----29.99- 67.8 70.0----
2024-02-25 09:00 pm S 13.0 15.9----29.99- 68.0 70.0----
2024-02-25 08:54 pm S 13.0 15.0----29.99- 68.0 70.0----
2024-02-25 08:48 pm S 14.0 15.9----29.98- 68.0-----
2024-02-25 08:42 pm S 13.0 15.9----29.98- 68.0-----
2024-02-25 08:36 pm S 14.0 15.0----29.98- 68.0-----
2024-02-25 08:30 pm S 12.0 15.0----29.98- 67.8 70.2----
2024-02-25 08:24 pm S 13.0 15.9----29.98- 68.0 70.3----
2024-02-25 08:18 pm S 13.0 15.9----29.98- 68.0 70.3----
2024-02-25 08:12 pm S 14.0 15.0----29.98- 68.0 70.3----
2024-02-25 08:06 pm S 14.0 18.1----29.97- 68.2 70.3----
2024-02-25 08:00 pm S 14.0 18.1----29.97+0.01 68.2 70.3----
2024-02-25 07:54 pm S 15.0 17.1----29.97- 68.2 70.5----
2024-02-25 07:48 pm S 14.0 17.1----29.97- 68.2 70.5----
2024-02-25 07:42 pm S 13.0 15.9----29.97- 68.4 70.5----
2024-02-25 07:36 pm S 13.0 15.9----29.97- 68.2 70.5----
2024-02-25 07:30 pm S 14.0 17.1----29.97- 68.2 70.7----
2024-02-25 07:24 pm S 14.0 17.1----29.96- 68.2 70.7----
2024-02-25 07:18 pm S 17.1 19.0----29.96- 68.4 70.7----
2024-02-25 07:12 pm S 17.1 19.0----29.96- 68.5 70.7----
2024-02-25 07:06 pm S 15.0 18.1----29.96- 68.5 70.7----
2024-02-25 07:00 pm S 15.0 18.1----29.96+0.00- 70.7----
2024-02-25 06:54 pm S 15.9 18.1----29.96-- 70.7----
2024-02-25 06:48 pm S 15.0 18.1----29.96- 68.7 70.7----
2024-02-25 06:42 pm S 15.9 18.1----29.96- 68.9 70.7----
2024-02-25 06:36 pm S 15.9 19.0----29.96- 69.1 70.7----
2024-02-25 06:30 pm S 15.9 19.0----29.96- 69.1 70.7----
2024-02-25 06:24 pm S 15.0 20.0----29.96- 69.3 70.9----
2024-02-25 06:18 pm S 17.1 19.0----29.96-- 70.9----
2024-02-25 06:12 pm S 15.9 20.0----29.96-- 70.9----
2024-02-25 06:06 pm S 18.1 22.0----29.96-- 70.9----
2024-02-25 06:00 pm S 17.1 19.0------- 70.9----
2024-02-25 05:54 pm S 19.0 22.9------- 70.9----
2024-02-25 05:48 pm S 20.0 25.1----29.96- 70.2 70.9----
2024-02-25 05:42 pm S 18.1 21.0----29.96- 70.2 71.1----
2024-02-25 05:36 pm S 18.1 24.1----29.96- 70.2 71.1----
2024-02-25 05:30 pm S 18.1 22.0----29.96- 70.3 71.1----
2024-02-25 05:24 pm S 21.0 25.1----29.96- 70.5 71.1----
2024-02-25 05:00 pm S 18.1 22.0----29.96- 70.7 71.1----
2024-02-25 04:54 pm S 19.0 22.9----29.96- 70.7 71.1----
2024-02-25 04:48 pm S 21.0 22.9----29.96- 70.9 71.1----
2024-02-25 04:42 pm S 21.0 24.1----29.96- 70.7 71.1----
2024-02-25 04:36 pm S 19.0 25.1----29.96- 70.9 71.1----
2024-02-25 04:30 pm S 19.0 22.9----29.96- 70.9 71.1----
2024-02-25 04:24 pm S 19.0 22.0----29.96- 70.9 71.1----
2024-02-25 04:18 pm S 17.1 22.9----29.96- 70.9 71.1----
2024-02-25 04:12 pm S 19.0 22.0----29.96- 71.1 71.1----
2024-02-25 04:06 pm S 19.0 24.1----29.96- 70.9 71.1----
2024-02-25 04:00 pm S 19.0 24.1----29.96-0.08 71.2 71.1----
2024-02-25 03:54 pm S 20.0 25.1----29.96- 71.1 71.1----
2024-02-25 03:48 pm S 19.0 25.1----29.96-- 71.1----
2024-02-25 03:42 pm S 21.0 24.1----29.96-- 71.1----
2024-02-25 03:36 pm S 20.0 25.1----29.96-- 71.1----
2024-02-25 03:30 pm-------29.97-- 71.1----
2024-02-25 03:24 pm-------29.97-- 70.9----
2024-02-25 03:18 pm S 22.0 26.0----29.97- 71.2 70.9----
2024-02-25 03:12 pm S 18.1 24.1----29.97- 71.2 70.9----
2024-02-25 03:06 pm S 22.0 25.1----29.97- 71.2 70.9----
2024-02-25 03:00 pm S 22.9 25.1----29.97-0.09- 70.9----
2024-02-25 02:54 pm S 21.0 26.0----29.97-- 70.7----
2024-02-25 02:48 pm S 22.9 26.0----29.97- 71.6 70.7----
2024-02-25 02:42 pm S 22.0 25.1----29.98- 71.4 70.7----
2024-02-25 02:36 pm S 20.0 26.0----29.98- 71.4 70.5----
2024-02-25 02:30 pm S 22.0 25.1----29.98- 71.2 70.5----
2024-02-25 02:24 pm S 20.0 24.1----29.99- 71.2 70.3----
2024-02-25 02:18 pmSSW 21.0 25.1----29.99-- 70.3----
2024-02-25 02:12 pm S 21.0 24.1----29.99-- 70.2----
2024-02-25 02:06 pm S 20.0 27.0----30.00-- 70.0----
2024-02-25 02:00 pm S 21.0 27.0------- 70.0----
2024-02-25 01:54 pmSSW 19.0 25.1------- 69.8----
2024-02-25 01:48 pmSSW 22.0 25.1----30.00- 71.6 69.6----
2024-02-25 01:42 pm S 20.0 25.1----30.01- 71.4 69.6----
2024-02-25 01:36 pm S 22.0 26.0----30.01- 71.4 69.4----
2024-02-25 01:30 pm S 21.0 24.1----30.01- 71.4 69.3----
2024-02-25 01:24 pmSSW 18.1 24.1----30.02- 71.4 69.1----
2024-02-25 01:18 pm S 20.0 22.9----30.02- 71.4 68.9----
2024-02-25 01:12 pmSSW 20.0 24.1----30.03- 72.0 68.9----
2024-02-25 01:06 pmSSW 17.1 22.0----30.03- 71.8 68.7----
2024-02-25 01:00 pmSSW 17.1 22.9----30.03-0.06 71.6 68.7----
2024-02-25 12:54 pmSSW 15.9 22.9----30.04- 72.0 68.5----
2024-02-25 12:48 pmSSW 15.9 24.1----30.04- 71.6 68.5----
2024-02-25 12:42 pmSSW 17.1 21.0----30.05- 71.8 68.4----
2024-02-25 12:36 pmSSW 17.1 22.9----30.05- 71.4 68.2----
2024-02-25 12:30 pmSSW 18.1 22.0----30.05-- 68.0----
2024-02-25 12:24 pmSSW 18.1 22.0----30.06-- 67.8----
2024-02-25 12:18 pmSSW 15.9 22.0----30.06- 71.6 67.8----
2024-02-25 12:12 pmSSW 17.1 22.0----30.06- 71.6 67.6----
2024-02-25 12:06 pmSSW 18.1 24.1----30.06- 72.0 67.6----
2024-02-25 12:00 pmSSW 19.0 25.1----30.06-0.02 71.8 67.6----
2024-02-25 11:54 amSSW 20.0 24.1----30.06- 71.4 67.5----
2024-02-25 11:48 amSSW 18.1 22.0----30.06- 71.6 67.3----
2024-02-25 11:42 am S 19.0 21.0----30.06- 71.1 67.3----
2024-02-25 11:36 amSSW 18.1 22.9----30.07- 71.2 67.1----
2024-02-25 11:30 amSSW 19.0 22.9----30.07- 71.2 67.1----
2024-02-25 11:24 am S 20.0 22.9----30.07- 70.9 66.9----
2024-02-25 11:18 amSSW 22.0 25.1----30.07- 71.2 66.9----
2024-02-25 11:12 amSSW 18.1 22.9----30.08- 71.1 66.9----
2024-02-25 11:06 amSSW 19.0 24.1----30.08- 70.9 66.9----
2024-02-25 11:00 amSSW 18.1 24.1----30.08+0.01 71.1 66.7----
2024-02-25 10:54 amSSW 20.0 24.1----30.08- 70.7 66.7----
2024-02-25 10:48 amSSW 15.0 21.0----30.09- 70.9 66.7----
2024-02-25 10:42 amSSW 18.1 21.0----30.09- 70.9 66.7----
2024-02-25 10:36 amSSW 19.0 24.1----30.08- 70.7 66.7----
2024-02-25 10:30 am S 19.0 22.9----30.09- 70.3 66.7----
2024-02-25 10:24 amSSW 19.0 22.0----30.10- 70.3 66.7----
2024-02-25 10:18 amSSW 18.1 24.1----30.09-- 66.7----
2024-02-25 10:12 am S 19.0 22.9----30.09-- 66.9----
2024-02-25 10:06 amSSW 19.0 22.9----30.09-- 66.9----
2024-02-25 10:00 amSSW 15.0 19.0----30.09+0.04- 66.9----
2024-02-25 09:54 amSSW 19.0 22.9----30.10-- 66.9----
2024-02-25 09:48 am S 14.0 21.0----30.10- 69.3 66.9----
2024-02-25 09:42 amSSW 13.0 17.1----30.10- 69.1 66.9----
2024-02-25 09:36 am S 15.0 19.0----30.10- 69.1 66.9----
2024-02-25 09:30 amSSW 17.1 20.0------ 68.9 66.9----
2024-02-25 09:24 am S 14.0 17.1------ 68.0 66.9----
2024-02-25 09:18 am S 14.0 18.1----30.08-- 66.9----
2024-02-25 09:12 am S 13.0 15.0----30.08-- 66.9----
2024-02-25 09:06 am S 12.0 13.0----30.08-- 66.9----
2024-02-25 09:00 am S 8.9 11.1----30.09+0.02- 66.9----
2024-02-25 08:54 am S 8.9 11.1----30.08-- 66.9----
2024-02-25 08:48 am-------30.08- 65.1 66.9----
2024-02-25 08:42 am-------30.07- 64.9 66.9----
2024-02-25 08:36 am-------30.07- 64.6 66.9----
2024-02-25 08:30 am S 11.1 12.0------ 64.4 66.9----
2024-02-25 08:24 am S 9.9 12.0------ 64.2 66.9----
2024-02-25 08:18 am S 9.9 11.1----30.07-- 66.9----
2024-02-25 08:12 am S 8.9 11.1----30.07-- 66.9----
2024-02-25 08:06 am S 8.9 12.0----30.07-- 66.9----
2024-02-25 08:00 am S 9.9 11.1----30.06-- 66.9----
2024-02-25 07:54 am S 8.9 11.1----30.06-- 66.9----
2024-02-25 07:48 am S 11.1 12.0----30.06- 63.5-----
2024-02-25 07:42 am S 9.9 12.0----30.06- 63.3-----
2024-02-25 07:36 am S 9.9 12.0----30.06- 63.3-----
2024-02-25 07:30 am S 8.9 11.1----30.06- 63.3 67.1----
2024-02-25 07:24 am S 8.9 12.0----30.06- 63.1 67.1----
2024-02-25 07:18 am S 9.9 11.1----30.05- 63.0 67.1----
2024-02-25 07:12 am S 9.9 12.0----30.06- 63.0 67.1----
2024-02-25 07:06 am S 9.9 12.0----30.05- 63.1 67.1----
2024-02-25 07:00 am S 9.9 12.0----30.05+0.00- 67.1----
2024-02-25 06:54 am S 8.0 8.9----30.06-- 67.1----
2024-02-25 06:48 am S 8.9 11.1----30.06- 62.8 67.3----
2024-02-25 06:42 am S 8.9 9.9----30.06- 62.6 67.3----
2024-02-25 06:36 am S 8.0 9.9----30.06- 62.6 67.3----
2024-02-25 06:30 am S 8.0 9.9----30.06- 62.6 67.3----
2024-02-25 06:24 am S 8.0 9.9----30.05- 62.6 67.3----
2024-02-25 06:18 am-------30.06- 62.8 67.3----
2024-02-25 06:12 am-------30.06- 62.8 67.3----
2024-02-25 06:06 am-------30.06- 62.8 67.3----
2024-02-25 06:00 am S 6.0 7.0----30.06+0.00 62.6 67.5----
2024-02-25 05:54 am S 5.1 7.0----30.06- 62.6 67.5----
2024-02-25 05:48 am S 5.1 6.0----30.06- 62.6 67.5----
2024-02-25 05:42 am S 6.0 7.0----30.07- 62.6 67.5----
2024-02-25 05:36 am S 6.0 7.0----30.07- 62.6 67.5----
2024-02-25 05:30 am S 6.0 7.0----30.07-- 67.5----
2024-02-25 05:24 am S 7.0 8.9----30.06-- 67.5----
2024-02-25 05:18 am S 8.0 8.9------------
2024-02-25 05:12 am S 6.0 7.0------------
2024-02-25 05:06 amSSW 6.0 7.0------------
2024-02-25 05:00 amSSW 5.1 7.0------------
2024-02-25 04:54 amSSW 6.0 8.9------------
2024-02-25 04:48 amSSW 7.0 8.0----30.06- 62.1 67.6----
2024-02-25 04:42 amSSW 7.0 8.9----30.06- 62.4 67.6----
2024-02-25 04:36 amSSW 8.0 9.9----30.05- 62.4 67.6----
2024-02-25 04:30 am S 7.0 8.9----30.05- 62.4 67.8----
2024-02-25 04:24 amSSW 7.0 8.9----30.05- 62.2 67.8----
2024-02-25 04:18 amSSW 8.0 9.9----30.05- 62.2 67.8----
2024-02-25 04:12 am S 8.0 9.9----30.05- 62.1 67.8----
2024-02-25 04:06 amSSW 8.0 9.9----30.06- 61.9 67.8----
2024-02-25 04:00 amSSW 8.0 8.9----30.06-0.05 61.7 67.8----
2024-02-25 03:54 amSSW 7.0 8.9----30.06- 61.9 67.8----